OV1-4 R/B, 2124

Orbit data source: Space-Track

OV1-4 R/B, 2124 is space debris in LEO originally from a launch on Wed, 30 Mar 1966 UTC launched from the Air Force Western Test Range (AFWTR). Debris objects in space refer to the collection of defunct objects orbiting the Earth. Examples of debris include non-operational satellites, rocket bodies, and fragments generated from explosions, collisions, or faulty payload assembly.

Loading next visibility...
Identifier
2124, 1966-025D
Orbit
LEO
Country
Flag of USUS
Related business
Manufacturer
ABL
Mission
Spacecraft
Bus & Motor
ALTAIR, Unknown motor
Mass
~125 kg wet, ~125 kg dry
Launch date (UTC)
1966-03-30 (60 years ago)
Launch vehicle
Unknown
Launch site
Air Force Western Test Range (AFWTR)
Object type
Payload
Rocket body
Debris
Shape & HBR
Unknown
Radar Cross Section
Medium (>0.1 m² and <1 m²)

Expand to show TLE details & history
Last TLE update: 13 hours ago

TLE from 13 hours ago
0 OV1-4 R/B
1  2124U 66025D   25312.47698016  .00000412  00000-0  11565-3 0  9990
2  2124 144.5110  27.2678 0081056 331.4046  28.2216 13.87799111 20921
Epoch: 2025-11-08T11:26Z
TLE epoch observation values (Epoch: 2025-11-08T11:26:51.085Z)
Latitude
0.00001°
Longitude
167.6489°
Altitude
883.253 km
Speed
7.439 km/s
True Right ascension
01h 49m 04s
True Declination
0° 00' 00"
Sunlit
Object was in full shadow at epoch
Visualization orbit readout
Latitude
Unknown
Longitude
Unknown
Altitude
Unknown
Speed
Unknown
Apparent Right ascension
Unknown
Apparent Declination
Unknown
Sunlit
N/A
Visualization observer readout
Local Sidereal Time
20:10:56
Azimuth
Unknown
Elevation
Unknown
Doppler factor
Unknown
Orbital elements
Apogee altitude
998.649 km
Perigee altitude
880.024 km
Semi-major axis
7,317.474 km
Eccentricity
0.00811
Inclination
144.511°
RAAN
27.2678°
Arg. of periapsis
331.4046°
True anomaly
28.66478°
Mean anomaly
28.2216°
Eccentric anomaly
28.44279°
Mean motion
3.46738 °/min
Orbital period
103.82 mins
BSTAR
0.00011565
Loading maneuver chart data...
Computing Atmospheric mass density...
Loading historical data...
Loading historical data...
Loading historical data...
Loading historical data...
Loading historical data...
Loading historical data...
Loading historical data...

Documentation

Showing up to 5 results
|